Temp
73 72 72 71 71 72 71 71 70 69 69 69 68 69 69 69 71 70 69 69 69 68 68 68 68 67 68 68 66 66 65 65 65 66 65 66 65 64 64 65 63 63
73 73 72 72 71 72 71 71 70 70 70 69 70 69 70 70 70 70 69 69 69 69 68 68 68 69 69 68 66 66 65 65 65 68 65 64 63 63 63 63 63 63
67 71 71 71 70 71 71 71 71 70 70 71 70 70 69 70 69 69 68 68 68 68 68 68 68 67 69 67 67 65 64 64 64 65 64 64 63 62 63 64 63 63
64 69 71 72 71 72 71 70 70 70 70 69 69 70 70 70 69 68 68 70 67 67 67 68 67 68 67 68 66 65 65 65 65 64 64 63 63 63 62 63 62 62
65 69 70 71 72 71 71 70 70 70 70 69 69 69 69 68 68 68 67 68 67 67 67 67 67 67 67 66 66 64 65 63 64 63 62 62 62 63 64 64 63 61
64 65 68 71 71 70 70 70 72 71 70 69 68 69 68 69 68 68 68 67 68 68 68 67 67 67 67 67 64 62 63 63 63 63 63 62 63 64 64 63 61 60
63 64 66 70 71 71 70 70 70 70 70 69 70 68 69 68 68 69 69 68 69 68 68 67 67 66 66 65 63 64 63 64 64 63 63 62 61 61 63 63 62 62
64 66 68 69 69 69 69 69 70 69 69 70 68 68 69 69 70 69 69 69 69 69 68 69 68 68 66 64 64 63 63 65 64 64 62 61 61 61 61 63 62 61
63 64 64 62 65 67 68 68 69 69 70 69 68 68 69 70 70 69 70 69 69 68 69 68 67 67 65 65 63 64 63 63 63 62 61 60 60 61 62 62 61 60
63 63 64 64 64 65 66 67 68 68 70 69 69 68 69 68 70 71 70 68 68 69 69 68 67 66 66 66 66 64 63 63 62 62 62 61 61 61 62 61 60 59
61 61 61 62 62 62 64 65 68 68 69 70 69 68 70 69 69 71 69 69 67 69 69 68 67 67 66 65 65 63 63 62 62 62 61 61 60 60 62 60 59 58
62 61 61 61 61 62 62 61 63 65 67 68 70 68 68 69 69 70 71 70 70 70 69 69 68 67 66 66 65 65 63 62 62 61 61 60 60 60 60 60 59 58
63 62 60 60 60 60 60 61 62 63 64 67 68 67 67 66 67 68 67 70 69 69 68 68 68 67 65 65 65 64 63 63 61 61 61 60 60 60 60 59 59 59
63 62 62 61 61 60 60 60 61 62 62 63 64 65 66 66 66 67 67 68 68 69 68 66 66 66 65 65 64 63 62 62 61 60 59 59 59 59 59 59 59 59
62 62 62 61 61 61 61 62 62 62 62 62 62 63 64 65 64 65 67 67 68 68 68 67 65 65 65 64 63 63 62 61 61 61 60 59 58 58 58 59 59 59
62 61 61 61 60 60 61 62 63 63 63 62 62 62 63 63 65 65 66 66 66 67 66 65 64 62 57 55 56 59 59 60 59 58 59 58 57 57 58 58 58 58
62 61 61 60 60 60 60 61 63 63 64 64 64 63 62 63 64 65 65 65 66 65 64 63 62 57 49 43 46 52 57 56 57 57 57 58 58 57 56 57 57 58
61 61 61 61 61 61 60 60 61 62 63 63 62 61 60 62 62 63 63 63 63 63 62 63 58 50 43 44 44 47 53 55 55 56 56 56 57 57 57 58 57 57
62 61 60 60 60 61 60 59 59 59 59 60 59 59 59 58 59 60 61 61 62 62 62 60 52 45 43 44 44 43 44 52 54 55 55 56 57 57 57 57 56 55
65 63 62 61 61 60 60 59 58 58 58 58 58 58 57 56 56 56 58 60 61 62 62 58 52 45 43 43 43 42 41 46 53 54 54 56 57 56 56 55 55 54
61 62 60 62 62 61 59 59 59 58 58 58 57 57 56 56 56 56 59 60 61 62 62 58 52 44 42 42 42 42 40 45 52 53 54 55 56 56 56 55 55 54
58 58 59 59 60 60 60 59 59 58 57 57 57 57 57 56 56 57 57 58 59 61 60 56 48 41 42 41 42 41 41 49 51 52 53 55 55 56 57 56 56 55
60 59 58 57 59 60 60 60 59 58 58 57 55 55 55 55 55 56 56 57 57 58 59 52 46 42 41 41 41 41 43 51 52 53 54 55 55 56 56 57 56 57
63 60 58 59 59 60 61 61 60 60 59 57 56 55 54 54 55 55 55 56 56 57 59 51 47 44 41 41 41 41 47 51 53 54 55 56 57 56 56 57 58 59
65 63 61 58 57 58 60 61 61 60 60 59 58 58 56 56 55 55 55 56 56 58 61 55 49 46 41 41 41 41 46 52 53 54 55 56 57 56 56 56 56 58
65 62 60 58 58 58 58 60 62 61 60 59 58 59 57 56 55 54 55 54 55 56 57 57 50 47 42 40 41 41 43 51 53 53 53 55 57 58 56 55 57 56
MSLP
1014.56 1014.68 1014.86 1014.92 1014.84 1014.80 1014.90 1015.02 1015.10 1015.26 1015.40 1015.48 1015.72 1015.76 1015.80 1015.78 1015.74 1015.88 1016.08 1016.22 1016.36 1016.48 1016.60 1016.76 1016.92 1017.06 1017.08 1017.06 1017.24 1017.34 1017.42 1017.42 1017.48 1017.54 1017.62 1017.64 1017.74 1017.76 1017.80 1017.72 1017.64 1017.58
1014.78 1014.90 1014.96 1015.00 1014.92 1014.74 1014.76 1014.82 1014.98 1015.08 1015.18 1015.28 1015.38 1015.50 1015.54 1015.66 1015.76 1015.92 1016.14 1016.30 1016.38 1016.50 1016.56 1016.72 1016.84 1016.96 1017.02 1017.10 1017.26 1017.44 1017.46 1017.42 1017.56 1017.48 1017.64 1017.76 1017.86 1017.88 1017.86 1017.76 1017.68 1017.56
1015.92 1015.32 1015.20 1015.24 1015.14 1014.92 1014.82 1014.80 1014.88 1014.96 1015.02 1015.08 1015.14 1015.30 1015.52 1015.66 1015.88 1015.98 1016.12 1016.28 1016.38 1016.54 1016.62 1016.70 1016.84 1016.96 1016.98 1017.06 1017.24 1017.42 1017.50 1017.50 1017.58 1017.50 1017.64 1017.84 1017.92 1017.98 1017.86 1017.72 1017.70 1017.68
1015.88 1015.48 1015.14 1015.14 1015.06 1014.94 1014.84 1014.90 1014.92 1014.94 1014.96 1015.08 1015.16 1015.18 1015.40 1015.60 1015.82 1016.00 1016.14 1016.16 1016.42 1016.60 1016.66 1016.68 1016.84 1016.92 1017.02 1017.08 1017.18 1017.38 1017.42 1017.50 1017.52 1017.56 1017.68 1017.78 1017.86 1017.88 1017.84 1017.80 1017.78 1017.76
1015.10 1014.86 1014.76 1014.92 1014.88 1014.80 1014.86 1015.00 1015.04 1015.00 1015.04 1015.06 1015.06 1015.14 1015.30 1015.56 1015.80 1016.02 1016.14 1016.24 1016.38 1016.58 1016.68 1016.80 1016.86 1016.98 1017.08 1017.14 1017.24 1017.40 1017.42 1017.58 1017.54 1017.62 1017.78 1017.84 1017.76 1017.74 1017.70 1017.76 1017.86 1017.94
1014.86 1014.50 1014.32 1014.54 1014.60 1014.72 1014.88 1014.98 1015.00 1015.04 1015.04 1015.12 1015.14 1015.12 1015.24 1015.42 1015.70 1015.94 1016.16 1016.32 1016.40 1016.52 1016.66 1016.70 1016.84 1016.92 1017.00 1017.16 1017.26 1017.38 1017.44 1017.56 1017.62 1017.74 1017.80 1017.78 1017.68 1017.62 1017.76 1017.88 1017.96 1017.98
1014.90 1014.80 1014.52 1014.30 1014.32 1014.42 1014.72 1014.86 1014.94 1014.96 1015.02 1015.06 1015.06 1015.20 1015.20 1015.42 1015.60 1015.80 1016.00 1016.16 1016.32 1016.42 1016.52 1016.70 1016.78 1016.92 1016.96 1017.10 1017.28 1017.38 1017.46 1017.58 1017.66 1017.72 1017.78 1017.76 1017.80 1017.86 1017.74 1017.76 1017.82 1017.90
1015.04 1014.88 1014.56 1014.42 1014.48 1014.42 1014.66 1014.86 1014.92 1014.98 1015.00 1015.08 1015.18 1015.16 1015.16 1015.32 1015.44 1015.58 1015.74 1015.96 1016.10 1016.28 1016.38 1016.48 1016.66 1016.76 1016.88 1017.06 1017.28 1017.40 1017.48 1017.50 1017.60 1017.66 1017.84 1017.90 1017.92 1017.94 1017.82 1017.68 1017.70 1017.80
1015.08 1014.90 1014.70 1014.78 1014.88 1014.72 1014.84 1014.98 1014.92 1014.94 1015.00 1015.18 1015.24 1015.20 1015.10 1015.12 1015.22 1015.36 1015.58 1015.76 1015.94 1016.06 1016.28 1016.48 1016.62 1016.74 1016.90 1017.12 1017.28 1017.34 1017.40 1017.50 1017.60 1017.72 1017.86 1017.94 1017.88 1017.82 1017.76 1017.70 1017.80 1017.86
1015.08 1015.18 1015.08 1015.10 1015.32 1015.08 1015.06 1015.10 1014.98 1014.92 1014.94 1015.16 1015.22 1015.20 1015.18 1015.06 1015.00 1015.18 1015.44 1015.66 1015.86 1016.02 1016.16 1016.36 1016.58 1016.78 1016.96 1017.08 1017.12 1017.22 1017.44 1017.52 1017.52 1017.60 1017.70 1017.78 1017.84 1017.84 1017.82 1017.80 1017.82 1017.88
1015.08 1015.12 1015.16 1015.06 1015.16 1015.36 1015.46 1015.36 1015.02 1014.84 1014.84 1015.00 1015.18 1015.24 1015.16 1015.10 1015.02 1014.94 1015.28 1015.58 1015.80 1015.98 1016.16 1016.34 1016.56 1016.70 1016.88 1017.00 1017.08 1017.24 1017.44 1017.52 1017.56 1017.60 1017.76 1017.90 1017.94 1017.94 1017.88 1017.86 1017.88 1017.88
1014.86 1014.88 1014.94 1014.96 1014.96 1015.16 1015.34 1015.52 1015.50 1015.22 1014.98 1014.92 1014.96 1015.14 1015.14 1014.98 1015.00 1014.94 1015.06 1015.34 1015.58 1015.84 1015.98 1016.14 1016.36 1016.56 1016.76 1016.94 1017.04 1017.16 1017.28 1017.40 1017.50 1017.62 1017.78 1017.90 1017.98 1017.96 1017.92 1017.84 1017.90 1018.04
1014.74 1014.72 1014.72 1014.82 1014.98 1014.94 1014.96 1015.26 1015.48 1015.52 1015.42 1015.18 1015.02 1015.12 1015.20 1015.24 1015.16 1014.98 1014.94 1015.06 1015.32 1015.68 1015.94 1016.02 1016.20 1016.44 1016.72 1016.90 1017.08 1017.16 1017.26 1017.36 1017.48 1017.62 1017.76 1017.88 1017.90 1017.86 1017.88 1017.96 1018.04 1018.12
1014.68 1014.66 1014.68 1014.66 1014.74 1014.88 1015.00 1015.08 1015.28 1015.42 1015.42 1015.34 1015.18 1015.18 1015.22 1015.34 1015.42 1015.28 1015.10 1015.10 1015.22 1015.42 1015.64 1015.94 1016.26 1016.52 1016.76 1016.94 1017.04 1017.12 1017.26 1017.40 1017.54 1017.68 1017.82 1017.86 1017.92 1017.94 1017.92 1017.94 1018.00 1018.00
1014.58 1014.60 1014.56 1014.66 1014.74 1014.88 1014.92 1014.94 1015.00 1015.10 1015.20 1015.34 1015.34 1015.24 1015.28 1015.34 1015.36 1015.42 1015.30 1015.22 1015.26 1015.36 1015.62 1016.00 1016.32 1016.52 1016.64 1016.82 1016.98 1017.12 1017.26 1017.38 1017.44 1017.56 1017.70 1017.90 1018.00 1017.98 1017.86 1017.86 1017.88 1017.92
1014.42 1014.44 1014.50 1014.60 1014.74 1014.74 1014.74 1014.78 1014.80 1014.84 1014.96 1015.08 1015.06 1015.08 1015.16 1015.26 1015.26 1015.28 1015.26 1015.16 1015.34 1015.48 1015.76 1016.08 1016.36 1016.70 1016.98 1016.98 1017.16 1017.34 1017.46 1017.48 1017.56 1017.66 1017.76 1017.86 1017.96 1017.92 1017.92 1018.00 1018.04 1018.06
1014.24 1014.28 1014.28 1014.38 1014.46 1014.54 1014.60 1014.56 1014.52 1014.58 1014.64 1014.66 1014.70 1014.82 1015.06 1015.16 1015.14 1015.12 1015.14 1015.16 1015.24 1015.56 1015.86 1016.16 1016.40 1016.92 1017.12 1017.30 1017.42 1017.56 1017.64 1017.72 1017.78 1017.88 1017.90 1017.98 1017.96 1017.94 1018.02 1017.96 1018.08 1018.18
1013.98 1014.00 1014.04 1014.04 1014.08 1014.10 1014.16 1014.26 1014.32 1014.32 1014.28 1014.30 1014.44 1014.72 1014.90 1015.04 1015.16 1015.12 1015.12 1015.20 1015.36 1015.62 1015.88 1016.02 1016.54 1017.10 1017.22 1017.44 1017.66 1017.78 1017.80 1017.78 1017.88 1018.02 1018.10 1018.10 1017.96 1017.92 1017.86 1017.88 1018.10 1018.32
1013.40 1013.64 1013.74 1013.74 1013.78 1013.78 1013.90 1014.10 1014.14 1014.18 1014.22 1014.32 1014.40 1014.50 1014.76 1015.02 1015.12 1015.18 1015.24 1015.30 1015.52 1015.74 1015.84 1016.02 1016.66 1017.20 1017.30 1017.56 1017.78 1017.90 1017.86 1017.90 1018.00 1018.08 1018.16 1018.08 1017.90 1017.78 1017.80 1017.96 1018.24 1018.62
1013.08 1013.28 1013.34 1013.36 1013.40 1013.54 1013.68 1013.76 1013.84 1013.82 1013.82 1014.02 1014.26 1014.44 1014.56 1014.86 1015.50 1015.64 1015.78 1015.58 1015.56 1015.68 1015.68 1016.16 1016.78 1017.32 1017.36 1017.62 1017.84 1017.86 1017.86 1018.00 1018.06 1018.18 1018.18 1018.06 1017.88 1017.86 1017.92 1018.18 1018.48 1018.72
1013.80 1013.50 1013.70 1013.36 1013.26 1013.40 1013.48 1013.52 1013.56 1013.62 1013.68 1013.76 1013.94 1014.18 1014.38 1014.62 1014.94 1015.28 1015.40 1015.36 1015.34 1015.36 1015.44 1015.96 1016.82 1017.22 1017.48 1017.70 1017.80 1017.74 1017.84 1018.04 1018.12 1018.18 1018.16 1017.96 1017.84 1017.90 1018.12 1018.44 1018.66 1018.76
1013.58 1013.58 1013.82 1013.98 1013.68 1013.30 1013.22 1013.30 1013.30 1013.36 1013.48 1013.54 1013.68 1013.84 1014.08 1014.32 1014.54 1014.88 1015.16 1015.18 1015.16 1015.16 1015.28 1015.96 1016.88 1017.38 1017.60 1017.78 1017.76 1017.70 1017.86 1018.06 1018.12 1018.14 1018.06 1017.82 1017.64 1017.74 1017.94 1018.24 1018.48 1018.58
1013.48 1013.58 1013.58 1013.80 1013.54 1013.12 1013.06 1013.02 1013.06 1013.12 1013.16 1013.28 1013.60 1013.90 1014.06 1014.20 1014.26 1014.44 1014.68 1014.90 1015.10 1015.34 1015.30 1016.28 1017.04 1017.52 1017.68 1017.68 1017.64 1017.66 1017.84 1017.94 1017.92 1017.92 1017.78 1017.50 1017.36 1017.44 1017.74 1017.90 1018.06 1018.18
1013.04 1013.40 1013.80 1013.78 1013.60 1013.10 1012.68 1012.68 1012.72 1012.78 1012.98 1013.16 1013.38 1013.70 1013.96 1014.16 1014.34 1014.60 1014.86 1014.98 1015.22 1015.30 1015.06 1015.84 1016.46 1017.14 1017.48 1017.50 1017.50 1017.50 1017.56 1017.68 1017.68 1017.60 1017.44 1017.08 1016.86 1016.98 1017.28 1017.46 1017.52 1017.66
1012.78 1012.90 1013.14 1013.46 1013.64 1013.66 1012.98 1012.56 1012.64 1012.68 1012.86 1013.02 1013.20 1013.42 1013.68 1013.96 1014.14 1014.32 1014.54 1014.72 1014.88 1014.92 1014.76 1015.44 1016.18 1016.78 1017.34 1017.38 1017.36 1017.32 1017.50 1017.48 1017.44 1017.28 1017.14 1016.78 1016.54 1016.62 1016.82 1017.04 1017.22 1017.24
1012.58 1012.68 1012.92 1012.98 1013.12 1013.38 1013.60 1012.92 1012.40 1012.50 1012.68 1012.84 1013.08 1013.26 1013.52 1013.80 1014.06 1014.26 1014.38 1014.44 1014.48 1014.52 1014.60 1014.90 1015.80 1016.46 1017.10 1017.26 1017.14 1017.20 1017.34 1017.32 1017.26 1017.28 1017.08 1016.62 1016.22 1016.26 1016.42 1016.70 1016.72 1016.88
Wind_Speed
4 3 4 4 3 4 5 5 5 5 5 5 5 4 4 4 4 4 4 3 4 3 3 3 2 2 3 2 4 2 2 2 3 2 2 1 1 2 3 3 3 3
4 2 2 3 4 3 4 4 4 6 5 5 4 4 4 3 3 4 3 3 4 4 3 3 2 1 0 2 3 2 2 2 2 2 2 3 3 4 4 4 4 4
10 4 3 4 4 3 4 4 4 5 4 5 5 4 5 3 3 3 3 3 3 4 3 2 3 2 0 3 2 1 2 3 2 2 3 2 2 3 3 3 2 3
8 10 3 5 5 3 4 4 4 4 4 4 6 6 5 4 3 4 3 4 4 4 3 2 2 1 2 0 2 2 2 1 2 2 2 2 2 3 3 2 3 3
8 7 5 5 5 4 4 5 5 4 5 4 5 5 5 5 4 4 3 2 3 3 3 3 2 2 2 1 2 0 0 1 2 3 3 2 3 3 2 1 1 2
8 7 6 7 6 5 5 6 7 5 5 6 5 5 5 5 5 5 4 3 3 3 4 3 3 3 1 1 1 0 0 0 2 2 2 2 2 2 3 3 3 3
6 7 9 8 6 7 6 6 5 5 5 5 5 5 5 5 5 6 5 4 4 3 4 3 2 2 2 1 1 0 2 1 1 1 2 2 3 3 2 1 1 2
4 6 7 6 6 6 6 5 4 4 4 5 5 5 6 7 6 5 5 5 5 5 2 3 3 2 2 3 0 0 1 1 1 0 1 2 1 2 2 2 2 3
6 5 4 7 8 2 3 4 4 4 4 4 5 5 5 6 6 5 5 5 4 4 4 3 3 2 3 1 0 1 0 1 0 1 0 2 2 2 2 2 1 1
2 2 3 1 6 4 3 4 5 4 4 4 4 4 6 5 5 7 5 3 4 3 2 3 2 2 1 1 1 2 1 1 1 1 1 2 3 2 3 3 2 1
3 2 2 2 3 4 4 7 8 5 4 6 6 5 5 5 4 5 6 4 3 4 4 3 3 2 2 2 1 3 2 1 1 0 1 1 2 3 3 3 3 3
3 5 5 3 2 1 1 4 8 7 3 3 4 3 4 4 4 4 6 7 5 3 3 4 4 3 2 1 1 0 1 0 0 0 1 1 2 2 3 3 2 3
5 6 7 6 3 1 1 2 2 3 7 5 2 3 3 2 4 3 3 3 5 3 3 3 3 3 2 1 0 1 2 1 1 1 0 1 2 2 1 2 3 2
6 5 4 4 3 4 5 4 4 3 4 5 4 2 1 4 4 4 2 2 3 7 5 3 2 2 1 1 2 2 1 1 0 0 1 2 2 2 2 2 3 2
6 6 6 6 6 7 8 8 6 6 6 6 6 4 3 4 5 6 7 6 3 0 3 3 2 2 2 3 2 2 1 0 1 1 0 1 2 3 2 2 2 2
7 7 6 7 8 8 9 8 8 7 6 6 7 5 5 5 5 8 4 7 5 3 2 3 4 3 6 10 6 3 1 2 2 2 2 2 2 2 1 2 3 2
8 8 8 9 9 9 8 9 9 8 7 6 6 6 5 5 5 4 2 2 5 3 4 3 4 5 9 9 9 6 2 1 1 1 2 3 3 2 2 1 1 2
7 8 8 8 9 10 11 10 9 9 7 6 6 4 5 4 4 4 3 2 2 2 4 4 6 8 11 10 9 8 4 2 1 1 2 3 3 3 2 1 1 0
7 7 8 8 9 8 8 7 8 9 8 6 6 6 4 3 3 2 1 3 3 4 4 5 6 9 11 11 10 8 7 3 1 1 2 4 4 3 2 0 1 0
5 6 8 8 8 8 8 8 8 9 9 8 6 6 7 8 4 5 5 6 6 6 4 7 6 9 12 11 10 9 8 4 1 1 3 4 3 2 2 1 1 2
11 4 6 6 5 6 6 7 8 6 6 7 7 7 8 9 10 9 7 7 7 7 5 7 6 12 12 12 11 10 9 5 1 2 3 4 2 1 1 1 2 2
2 3 3 5 4 5 6 7 7 7 7 6 7 8 7 7 6 7 7 7 4 3 4 5 8 12 12 12 12 10 10 4 3 3 5 4 3 2 2 3 5 5
2 3 0 6 9 5 6 6 6 6 6 5 6 5 7 8 8 9 8 8 8 6 6 6 7 10 11 12 12 12 7 4 4 4 5 6 4 4 3 3 3 4
2 2 6 7 8 8 5 4 4 4 5 6 7 8 8 7 6 5 4 4 5 7 7 9 7 10 14 12 13 13 8 5 4 5 6 6 4 5 5 5 7 12
3 1 1 4 10 9 3 5 4 4 4 5 6 6 7 7 7 8 7 7 7 7 10 10 10 10 14 13 14 14 9 3 4 4 5 6 5 5 5 5 5 8
2 3 1 2 2 5 10 7 3 4 5 6 6 5 6 7 7 8 9 9 8 5 5 6 10 8 11 14 14 13 12 6 4 4 6 6 4 5 5 7 7 7
Wind_Direction
214 186 205 219 210 190 182 165 172 158 174 160 172 159 166 152 166 123 123 130 126 133 100 94 103 77 321 75 66 29 338 356 28 7 322 349 322 306 290 286 275 270
230 214 216 226 240 202 174 167 177 170 174 161 151 154 140 142 124 130 141 130 153 137 139 135 121 85 42 53 68 31 322 15 10 331 345 13 5 350 332 326 334 336
316 273 236 228 233 209 177 175 174 180 167 155 150 141 129 136 146 139 137 166 151 117 122 128 127 157 32 66 70 52 340 357 349 355 34 11 343 295 274 289 316 328
260 264 240 237 235 210 187 184 179 181 160 160 151 143 144 148 155 144 163 173 120 142 154 121 108 92 71 121 89 33 345 15 343 7 7 24 332 320 321 346 328 324
242 246 221 237 233 204 193 194 191 182 177 159 153 149 150 145 153 151 160 138 142 147 149 146 167 134 162 120 70 31 33 19 330 21 11 304 267 249 276 329 344 348
236 242 226 229 220 197 193 199 194 190 178 161 163 152 151 153 161 155 157 177 166 171 169 160 174 153 145 89 86 145 87 37 30 347 301 296 307 27 21 342 316 287
235 239 238 228 220 190 193 201 199 195 178 169 159 162 158 159 172 164 171 178 176 193 170 166 160 157 173 133 142 5 52 12 338 277 287 328 22 347 296 293 301 329
322 269 239 229 224 193 191 204 206 195 171 175 170 170 169 166 184 168 173 178 189 176 196 172 169 160 138 121 98 36 46 274 227 217 10 331 336 280 287 284 11 344
300 301 336 340 316 261 213 227 223 201 183 181 176 184 174 173 188 167 174 178 197 179 175 178 181 161 107 102 145 230 115 48 312 229 246 273 266 292 316 350 320 350
281 306 334 354 290 257 277 266 247 203 195 184 192 198 186 178 190 165 176 182 185 187 192 161 161 124 153 210 222 71 68 259 1 6 320 347 348 338 332 342 334 314
194 105 6 357 21 360 268 238 233 211 196 198 200 204 199 182 204 185 155 182 193 194 190 178 174 180 190 162 183 155 175 192 215 275 35 318 325 332 311 299 333 321
177 173 204 204 186 190 70 340 335 309 270 240 223 191 229 219 201 205 181 174 184 201 222 182 176 176 160 192 187 120 154 104 135 87 2 345 300 287 303 324 343 346
222 207 203 207 201 250 303 308 299 306 302 285 269 237 224 311 285 253 167 175 160 183 222 192 157 141 141 133 81 241 184 167 78 60 272 243 267 272 320 331 334 310
229 230 238 225 184 223 260 261 258 255 264 285 297 311 140 208 252 274 243 161 201 188 179 132 133 132 169 198 182 187 109 125 142 150 273 307 330 334 307 266 243 240
227 221 210 205 206 218 229 245 244 229 219 227 249 250 235 227 220 241 230 179 207 53 131 142 170 189 190 174 183 100 75 104 167 233 174 259 269 266 284 299 328 332
221 218 215 217 221 221 225 231 237 231 217 219 207 216 214 230 227 231 230 174 173 181 165 143 164 97 91 80 71 80 48 25 19 348 309 269 273 281 297 338 329 318
224 218 215 210 212 216 218 227 230 232 227 224 219 202 210 227 232 239 246 143 162 167 168 159 135 108 116 105 95 90 95 84 7 329 307 306 282 276 288 248 247 304
219 223 219 219 211 209 210 222 229 241 238 226 212 199 198 206 216 222 211 130 129 216 177 176 104 139 128 120 118 112 104 90 62 349 296 272 254 243 245 216 206 6
200 210 225 224 225 221 210 210 215 222 240 239 215 184 159 198 198 186 167 174 196 240 211 135 110 147 136 135 134 134 117 101 128 269 278 264 261 247 232 135 62 3
240 218 222 221 218 220 220 215 209 212 213 214 197 172 178 174 177 211 218 208 207 227 225 131 130 156 144 146 146 143 134 116 192 266 263 269 285 334 8 22 322 253
321 318 308 282 228 217 218 225 222 217 212 203 198 196 188 177 182 198 207 209 206 210 220 143 144 155 154 154 155 146 145 137 202 233 246 248 220 198 122 303 275 263
318 316 327 299 256 229 209 200 197 201 204 202 193 193 184 166 171 189 200 205 216 214 213 116 140 160 162 163 159 151 147 163 192 221 237 241 217 176 175 179 210 211
284 293 287 277 273 237 209 217 221 211 207 175 158 153 181 189 192 195 190 190 196 214 223 119 144 172 175 170 164 155 156 178 202 215 230 227 197 177 178 211 206 219
307 330 290 277 238 230 214 207 199 207 184 168 172 170 181 187 175 177 167 186 212 224 215 142 162 172 182 178 167 166 174 178 208 216 236 238 203 166 172 196 212 218
337 199 155 351 323 321 266 196 199 201 178 169 179 181 184 178 182 181 181 192 212 220 212 165 164 170 184 183 177 174 181 198 217 239 245 246 209 179 178 188 209 224
295 318 16 62 7 291 286 265 199 187 188 185 182 191 187 182 186 191 196 208 213 216 227 169 154 148 180 187 183 181 189 196 207 229 246 252 207 204 191 194 206 187